Location: Unspecified
(0.0000°N, 0.0000°E)
Time: 19:55:16
(UTC+00:00)

deb Briz - Pass Details

Date: 22 February 2026
Orbit: 1607 x 2037 km, 64.9° (Epoch: 11 March)

Event Time Altitude Azimuth Distance (km) Brightness Sun altitude
Rises 03:17:44 0° 188° (S) 5,260 ? -43.1°
Reaches altitude 10° 03:21:18 10° 182° (S) 4,204 ? -42.2°
Maximum altitude 03:31:14 46° 112° (ESE) 2,213 ? -39.8°
Drops below altitude 10° 03:40:23 10° 42° (NE) 3,898 ? -37.6°
Sets 03:43:31 0° 36° (NE) 4,850 ? -36.8°
